2024/01/14 00:00:00,30.9,-3.4
2024/01/14 00:10:00,30.8,-3.4
2024/01/14 00:20:00,30.8,-3.3
2024/01/14 00:30:00,30.7,-3.4
2024/01/14 00:40:00,30.7,-3.5
2024/01/14 00:50:00,30.7,-3.5
2024/01/14 01:00:00,30.6,-3.5
2024/01/14 01:10:00,30.5,-3.6
2024/01/14 01:20:00,30.5,-3.8
2024/01/14 01:30:00,30.5,-3.9
2024/01/14 01:40:00,30.4,-4.0
2024/01/14 01:50:00,30.4,-4.1
2024/01/14 02:00:00,30.4,-4.3
2024/01/14 02:10:00,30.3,-4.5
2024/01/14 02:20:00,30.3,-5.2
2024/01/14 02:30:00,30.3,-5.6
2024/01/14 02:40:00,30.2,-5.8
2024/01/14 02:50:00,30.2,-6.2
2024/01/14 03:00:00,30.1,-6.7
2024/01/14 03:10:00,30.1,-6.4
2024/01/14 03:20:00,30.0,-6.5
2024/01/14 03:30:00,30.0,-6.7
2024/01/14 03:40:00,30.0,-6.6
2024/01/14 03:50:00,29.9,-6.9
2024/01/14 04:00:00,29.9,-6.9
2024/01/14 04:10:00,29.9,-6.8
2024/01/14 04:20:00,29.8,-6.5
2024/01/14 04:30:00,29.8,-6.3
2024/01/14 04:40:00,29.8,-6.6
2024/01/14 04:50:00,29.8,-6.5
2024/01/14 05:00:00,29.8,-7.0
2024/01/14 05:10:00,29.7,-6.6
2024/01/14 05:20:00,29.7,-6.4
2024/01/14 05:30:00,29.7,-6.3
2024/01/14 05:40:00,29.7,-6.4
2024/01/14 05:50:00,29.7,-6.5
2024/01/14 06:00:00,29.7,-6.6
2024/01/14 06:10:00,29.7,-6.4
2024/01/14 06:20:00,29.7,-6.3
2024/01/14 06:30:00,29.6,-6.0
2024/01/14 06:40:00,29.6,-5.6
2024/01/14 06:50:00,29.6,-5.6
2024/01/14 07:00:00,29.6,-4.6
2024/01/14 07:10:00,29.6,-4.4
2024/01/14 07:20:00,29.5,-4.1
2024/01/14 07:30:00,29.5,-3.8
2024/01/14 07:40:00,29.5,-4.0
2024/01/14 07:50:00,29.5,-3.4
2024/01/14 08:00:00,29.5,-3.3
2024/01/14 08:10:00,29.5,-2.9
2024/01/14 08:20:00,29.4,-2.8
2024/01/14 08:30:00,29.4,-2.7
2024/01/14 08:40:00,29.3,-2.7
2024/01/14 08:50:00,29.2,-2.5
2024/01/14 09:00:00,29.2,-0.7
2024/01/14 09:10:00,29.3, 1.5
2024/01/14 09:20:00,29.3, 3.8
2024/01/14 09:30:00,29.3, 6.2
2024/01/14 09:40:00,29.2, 4.3
2024/01/14 09:50:00,29.2, 6.2
2024/01/14 10:00:00,29.3, 3.3
2024/01/14 10:10:00,29.3, 4.9
2024/01/14 10:20:00,29.4, 8.0
2024/01/14 10:30:00,29.4, 9.8
2024/01/14 10:40:00,29.4,11.0
2024/01/14 10:50:00,29.6,12.7
2024/01/14 11:00:00,29.6,11.3
2024/01/14 11:10:00,29.2,13.0
2024/01/14 11:20:00,29.4,11.2
2024/01/14 11:30:00,29.1,11.2
2024/01/14 11:40:00,29.0,12.5
2024/01/14 11:50:00,28.9,14.2
2024/01/14 12:00:00,28.9,15.3
2024/01/14 12:10:00,28.9,16.1
2024/01/14 12:20:00,28.8,17.1
2024/01/14 12:30:00,28.9,19.1
2024/01/14 12:40:00,29.1,20.9
2024/01/14 12:50:00,29.3,20.6
2024/01/14 13:00:00,29.3,21.4
2024/01/14 13:10:00,29.7,21.3
2024/01/14 13:20:00,29.7,21.4
2024/01/14 13:30:00,29.3,20.0
2024/01/14 13:40:00,29.2,19.1
2024/01/14 13:50:00,29.1,18.3
2024/01/14 14:00:00,28.6,17.2
2024/01/14 14:10:00,28.3,17.5
2024/01/14 14:20:00,28.1,18.7
2024/01/14 14:30:00,27.8,19.6
2024/01/14 14:40:00,27.2,18.0
2024/01/14 14:50:00,27.0,20.0
2024/01/14 15:00:00,27.0,16.4
2024/01/14 15:10:00,26.8,15.0
2024/01/14 15:20:00,26.8,14.7
2024/01/14 15:30:00,26.7,14.2
2024/01/14 15:40:00,26.5,14.7
2024/01/14 15:50:00,26.5,11.7
2024/01/14 16:00:00,26.3,10.1
2024/01/14 16:10:00,26.3, 9.9
2024/01/14 16:20:00,26.2, 9.2
2024/01/14 16:30:00,26.1, 8.7
2024/01/14 16:40:00,26.0, 8.3
2024/01/14 16:50:00,26.0, 6.5
2024/01/14 17:00:00,26.0, 5.0
2024/01/14 17:10:00,25.8, 4.2
2024/01/14 17:20:00,25.7, 3.2
2024/01/14 17:30:00,25.7, 2.9
2024/01/14 17:40:00,25.7, 2.5
2024/01/14 17:50:00,25.6, 2.6
2024/01/14 18:00:00,25.6, 2.8
2024/01/14 18:10:00,25.6, 2.6
2024/01/14 18:20:00,25.6, 2.6
2024/01/14 18:30:00,25.6, 2.0
2024/01/14 18:40:00,25.7, 1.9
2024/01/14 18:50:00,25.6, 2.1
2024/01/14 19:00:00,25.6, 1.7
2024/01/14 19:10:00,25.5, 1.5
2024/01/14 19:20:00,25.6, 1.8
2024/01/14 19:30:00,25.6, 2.3
2024/01/14 19:40:00,25.5, 2.0
2024/01/14 19:50:00,25.5, 1.9
2024/01/14 20:00:00,25.4, 1.5
2024/01/14 20:10:00,25.5, 1.4
2024/01/14 20:20:00,25.4, 1.2
2024/01/14 20:30:00,25.4, 1.1
2024/01/14 20:40:00,25.4, 1.1
2024/01/14 20:50:00,25.4, 0.9
2024/01/14 21:00:00,25.3, 0.9
2024/01/14 21:10:00,25.3, 1.0
2024/01/14 21:20:00,25.3, 1.3
2024/01/14 21:30:00,25.3, 1.8
2024/01/14 21:40:00,25.3, 2.2
2024/01/14 21:50:00,25.3, 2.5
2024/01/14 22:00:00,25.2, 2.8
2024/01/14 22:10:00,25.2, 2.9
2024/01/14 22:20:00,25.2, 3.4
2024/01/14 22:30:00,25.2, 3.3
2024/01/14 22:40:00,25.1, 3.7
2024/01/14 22:50:00,25.1, 3.8
2024/01/14 23:00:00,25.2, 3.9
2024/01/14 23:10:00,25.2, 3.7
2024/01/14 23:20:00,25.0, 3.4
2024/01/14 23:30:00,24.9, 2.9
2024/01/14 23:40:00,24.8, 3.2
2024/01/14 23:50:00,24.9, 2.9
